Wind_Speed
16 16 16 15 15 15 15 15 15 15 15 14 16 17 18 18 19 20 20 20 20 21 22 22 22 22 22 22 23 23 23 23 24 24 24 25 26 26 26 27 28 28 28
16 16 16 17 16 16 16 15 15 15 15 15 16 17 18 19 20 20 20 20 20 21 21 21 22 22 22 22 22 23 23 24 24 25 25 26 26 26 26 27 27 27 28
16 17 17 17 17 16 16 16 16 16 16 16 16 17 18 18 19 20 20 20 21 21 22 22 22 22 21 21 22 22 22 23 24 24 24 25 25 26 26 26 26 26 27
17 17 18 18 17 16 16 16 16 16 17 17 17 17 18 18 19 19 20 20 20 20 21 21 21 21 21 22 22 22 22 22 23 23 23 23 23 24 25 25 25 25 26
18 18 19 19 18 17 17 17 17 17 17 17 18 18 18 19 19 20 21 21 20 20 20 20 20 21 21 21 21 21 21 21 21 22 21 21 21 22 23 23 24 24 24
18 19 20 20 19 18 18 18 18 18 18 18 18 19 19 19 20 20 21 20 20 20 21 21 21 21 21 21 21 21 20 20 19 20 19 19 19 19 19 20 20 21 22
19 20 20 19 19 19 19 18 18 17 17 18 19 19 19 19 19 20 20 21 20 20 21 21 21 21 21 20 20 20 20 18 18 17 17 17 17 17 17 18 19 20 20
19 19 19 19 19 19 18 18 17 17 18 18 19 18 19 19 19 20 20 20 20 20 20 20 20 19 19 19 18 18 18 17 17 16 16 16 16 17 17 18 20 20 20
19 19 20 19 19 18 18 18 18 18 18 19 19 19 19 19 19 19 19 19 19 20 20 20 19 19 19 18 17 17 16 16 15 16 15 16 16 16 17 18 19 19 19
18 19 19 19 19 19 18 18 18 18 18 19 19 19 19 19 19 19 19 19 19 19 20 19 19 18 18 18 17 16 15 15 15 15 15 15 16 16 16 17 18 18 18
19 19 19 19 19 19 19 19 19 19 19 19 19 19 19 19 19 19 18 18 19 19 19 18 18 19 18 18 16 16 15 15 15 15 15 15 15 15 15 15 16 17 17
19 19 19 18 19 19 20 19 19 19 19 19 19 18 18 19 19 18 18 18 19 19 18 18 18 18 18 17 16 16 16 15 16 15 15 15 15 15 15 14 15 15 16
19 19 18 19 19 19 19 19 19 19 19 19 18 18 19 19 18 18 18 19 19 19 18 18 18 18 17 17 16 16 16 17 16 16 16 16 15 15 15 15 15 15 15
19 19 19 20 20 19 19 19 19 19 19 19 18 18 19 18 19 19 19 19 19 18 18 18 18 18 18 17 17 17 17 17 17 17 17 16 16 16 15 15 15 16 16
19 19 19 20 20 20 20 20 20 20 19 18 18 18 18 19 19 19 18 18 18 18 18 18 19 19 18 18 18 17 17 17 17 16 16 16 16 16 16 16 16 16 17
20 20 21 21 22 21 21 21 20 20 19 18 18 19 19 19 19 19 18 17 18 17 17 17 17 18 18 17 17 17 17 17 16 16 16 16 16 16 16 16 17 16 16
20 21 22 22 22 22 21 21 21 20 19 19 19 19 19 19 18 18 18 18 18 17 17 17 17 17 17 17 16 16 17 17 16 16 17 17 16 16 16 16 16 16 16
22 22 22 22 22 22 21 21 21 20 19 19 19 19 19 19 19 18 18 18 17 17 16 16 16 16 16 17 17 16 17 17 16 17 17 18 18 17 17 17 17 16 16
22 22 22 22 22 22 22 22 21 20 20 20 19 19 19 19 18 18 18 18 17 17 16 16 16 16 17 17 17 17 17 17 18 18 18 18 18 18 18 17 16 16 16
23 22 22 23 23 22 21 21 21 21 20 20 19 19 19 18 18 18 18 18 18 17 17 17 17 17 17 18 18 17 17 18 18 18 18 18 18 18 18 17 16 17 16
23 22 22 22 21 20 19 19 19 19 18 17 18 18 17 17 18 18 19 18 18 18 18 19 19 19 19 19 19 18 18 19 19 19 18 18 18 17 17 17 16 16 16
22 21 21 20 20 19 18 18 18 18 18 17 17 17 17 17 17 18 18 18 18 18 19 19 20 20 19 19 19 19 19 19 19 19 19 19 18 18 18 17 17 17 17
21 21 20 20 19 18 18 17 17 17 17 17 17 17 17 17 17 18 18 18 18 18 19 20 20 20 20 20 20 20 21 21 20 20 20 19 18 18 18 18 17 17 17
19 19 19 19 18 17 17 17 16 17 17 17 16 17 17 17 18 18 19 20 19 19 19 19 20 20 20 21 21 21 21 21 21 20 19 18 18 18 18 17 17 17 17
19 19 18 18 18 18 17 17 17 17 17 17 17 17 18 18 18 18 19 20 20 19 20 20 20 21 21 21 21 21 20 20 20 19 18 18 18 18 18 17 17 17 17
19 19 19 19 18 17 17 17 17 17 18 18 18 19 19 19 20 20 20 20 20 20 20 21 21 21 21 20 20 20 20 20 20 19 19 19 18 18 18 17 17 17 17
Wind_Direction
333 332 330 328 321 315 314 312 311 310 306 302 301 302 305 306 304 302 304 305 306 305 304 303 303 300 296 292 287 285 283 280 276 274 272 271 268 265 263 262 260 260 258
332 332 332 330 325 318 313 310 309 310 308 305 304 304 305 306 307 307 307 306 307 307 304 303 303 301 297 294 291 286 283 281 279 276 273 272 270 265 262 261 261 260 259
330 330 329 328 324 320 315 311 308 306 307 306 307 307 308 308 308 309 310 309 308 307 306 305 303 301 299 297 295 291 287 284 281 279 276 275 272 267 264 262 261 260 259
326 327 327 326 323 320 316 312 308 306 306 306 307 309 309 308 309 310 311 309 309 309 310 309 308 306 303 301 298 295 292 288 286 284 281 278 274 269 266 264 263 262 261
322 324 325 324 322 320 318 315 312 308 307 306 307 308 308 309 310 311 312 311 308 308 309 310 310 310 307 303 301 299 296 292 288 286 284 280 276 272 268 266 265 264 264
318 320 321 322 321 319 318 315 312 308 307 307 308 309 310 311 311 311 311 312 311 309 308 307 307 309 308 306 304 302 300 296 290 288 284 282 278 275 272 270 268 268 267
317 318 319 320 320 320 320 318 315 313 312 311 310 311 312 313 313 312 312 313 313 312 310 309 308 308 308 307 307 305 302 298 296 293 288 285 281 278 277 273 270 270 270
316 318 319 318 319 319 319 318 316 314 315 315 315 314 314 314 315 315 315 316 317 318 317 314 314 313 313 311 309 307 305 300 297 295 291 289 283 279 279 278 277 276 274
315 316 317 317 317 317 318 318 317 316 316 315 315 315 315 316 316 315 317 317 317 318 318 319 317 316 315 315 314 312 309 306 301 298 296 293 289 285 285 284 282 280 276
313 314 315 316 317 317 317 318 320 319 317 317 316 316 316 316 317 318 319 319 318 319 320 319 319 317 315 315 314 314 313 310 307 305 302 299 295 290 290 291 288 285 283
308 311 313 315 317 319 319 319 319 318 317 317 317 317 317 318 319 318 319 319 320 321 320 320 319 319 318 315 314 316 317 315 314 311 307 304 300 297 298 297 295 293 291
306 309 312 315 317 320 321 321 320 320 319 320 319 318 319 320 320 319 319 320 322 321 320 320 320 320 319 319 319 320 319 318 317 314 312 310 307 303 301 301 301 297 295
305 309 313 315 317 318 320 322 321 321 322 321 319 318 317 318 319 320 320 321 322 321 321 321 321 321 320 319 319 320 321 321 319 317 316 314 311 309 305 303 303 302 300
304 306 310 313 315 317 319 319 319 318 318 318 317 317 318 319 320 320 320 320 321 321 322 322 322 321 320 319 318 317 319 320 318 317 316 314 311 308 305 303 304 306 306
301 304 307 309 310 312 313 314 313 314 313 314 316 317 319 320 322 323 321 322 323 322 321 321 321 320 320 320 318 317 318 318 319 318 318 317 314 310 307 306 306 307 308
299 301 304 306 306 307 308 309 311 310 310 311 312 314 316 318 320 323 323 322 324 324 322 322 321 320 320 320 320 319 318 318 317 317 318 317 314 310 307 306 305 305 307
299 301 303 304 305 305 305 307 308 307 307 308 309 311 314 316 319 321 321 322 323 324 324 323 321 320 319 320 321 322 320 317 317 316 317 317 314 311 308 307 307 306 307
296 299 302 304 306 307 306 307 307 306 304 302 304 308 311 314 316 318 319 319 320 322 322 322 323 322 322 322 322 322 321 319 319 319 318 318 316 313 310 307 306 306 306
294 297 299 301 303 305 306 306 307 305 303 302 301 302 305 309 311 314 316 316 317 320 319 319 321 321 321 321 321 321 320 320 321 319 317 316 316 314 311 307 304 304 305
292 294 296 298 301 302 303 306 307 307 304 303 302 301 302 304 306 310 314 315 315 317 318 318 318 319 319 319 319 320 320 319 319 317 317 317 316 315 312 308 306 305 305
291 293 295 297 299 301 302 304 306 307 305 304 305 306 306 305 306 308 312 312 313 313 313 314 314 314 315 315 317 318 318 317 317 318 317 317 316 315 314 312 309 307 306
290 291 292 294 294 297 299 302 303 305 308 308 307 307 308 307 309 309 311 313 312 311 311 312 313 313 314 315 316 317 316 316 316 317 316 316 315 316 315 313 309 307 306
288 288 290 293 292 293 297 301 304 306 308 310 308 306 306 308 309 310 312 313 313 312 313 313 312 313 312 311 312 313 314 313 314 315 315 315 315 315 315 313 311 310 308
287 288 291 291 291 292 295 296 299 303 306 306 306 307 308 308 310 311 312 312 312 313 313 312 313 313 312 312 312 312 312 313 313 314 314 314 312 313 315 315 313 311 309
288 289 290 290 289 291 292 292 295 299 301 304 304 306 309 311 312 312 311 311 311 312 312 312 313 314 314 313 311 310 311 313 314 314 314 314 312 311 313 314 314 315 313
287 288 288 288 289 290 291 291 293 295 297 300 303 304 306 308 309 311 310 309 310 310 310 312 313 313 312 310 310 311 311 313 313 312 312 312 311 311 311 311 313 314 313
Height
5793 5790 5787 5784 5781 5778 5775 5773 5770 5768 5765 5763 5761 5759 5756 5754 5752 5749 5747 5744 5741 5738 5735 5732 5729 5726 5724 5721 5719 5717 5715 5714 5713 5713 5712 5711 5711 5710 5710 5710 5710 5711 5711
5791 5788 5784 5781 5778 5775 5772 5769 5766 5764 5762 5759 5757 5755 5752 5749 5747 5744 5742 5739 5736 5733 5729 5727 5724 5721 5718 5715 5712 5710 5708 5707 5706 5705 5704 5703 5702 5702 5702 5702 5702 5702 5702
5789 5785 5782 5778 5774 5771 5768 5765 5762 5760 5758 5755 5753 5750 5747 5745 5742 5739 5736 5734 5730 5727 5724 5721 5718 5715 5712 5709 5706 5703 5701 5700 5698 5697 5696 5695 5694 5693 5693 5693 5693 5693 5693
5785 5782 5778 5774 5771 5767 5764 5761 5758 5756 5753 5751 5749 5746 5743 5740 5737 5734 5731 5728 5725 5722 5719 5716 5712 5709 5706 5703 5700 5697 5695 5693 5691 5689 5688 5687 5686 5685 5685 5685 5685 5685 5685
5782 5778 5775 5771 5767 5763 5760 5757 5754 5752 5749 5747 5744 5741 5738 5735 5733 5729 5726 5723 5720 5717 5713 5710 5707 5704 5701 5698 5695 5692 5688 5686 5684 5682 5681 5680 5679 5678 5678 5677 5677 5677 5677
5777 5774 5770 5766 5763 5759 5756 5753 5750 5747 5745 5742 5739 5737 5734 5731 5727 5724 5721 5718 5714 5711 5708 5705 5702 5698 5695 5692 5689 5686 5683 5680 5678 5676 5675 5674 5673 5672 5671 5671 5670 5670 5670
5773 5770 5766 5762 5758 5755 5752 5749 5746 5743 5741 5738 5735 5732 5729 5726 5723 5719 5716 5712 5709 5706 5702 5699 5696 5693 5690 5687 5684 5681 5677 5675 5673 5671 5669 5668 5667 5667 5666 5665 5664 5663 5663
5768 5765 5762 5758 5755 5751 5748 5745 5742 5739 5736 5734 5730 5727 5724 5721 5718 5715 5711 5708 5704 5701 5698 5694 5691 5688 5684 5681 5679 5675 5672 5670 5668 5666 5664 5663 5662 5661 5660 5659 5658 5657 5656
5764 5761 5758 5754 5751 5748 5744 5741 5738 5735 5732 5729 5726 5723 5720 5717 5714 5710 5707 5703 5700 5697 5693 5690 5686 5683 5680 5677 5674 5671 5668 5665 5663 5661 5659 5657 5656 5655 5654 5652 5651 5650 5649
5759 5756 5753 5750 5747 5744 5740 5737 5734 5731 5728 5725 5722 5718 5715 5712 5709 5706 5702 5699 5696 5692 5689 5685 5682 5679 5676 5673 5670 5667 5664 5662 5659 5656 5654 5652 5651 5649 5647 5646 5644 5643 5642
5755 5752 5749 5746 5743 5740 5736 5733 5730 5726 5723 5720 5717 5714 5711 5708 5704 5701 5698 5695 5691 5688 5685 5681 5678 5675 5672 5669 5666 5664 5661 5658 5655 5652 5650 5648 5646 5644 5642 5640 5638 5637 5636
5750 5747 5744 5741 5739 5735 5732 5729 5725 5722 5719 5716 5713 5710 5707 5703 5700 5697 5694 5690 5687 5684 5681 5677 5674 5671 5668 5665 5663 5660 5657 5654 5651 5649 5646 5644 5641 5639 5637 5635 5633 5631 5630
5745 5743 5740 5737 5734 5731 5728 5724 5721 5718 5715 5712 5709 5706 5703 5699 5696 5693 5690 5686 5683 5680 5677 5674 5671 5668 5665 5662 5659 5656 5653 5650 5647 5645 5642 5640 5637 5635 5633 5631 5629 5627 5625
5740 5738 5735 5733 5730 5727 5724 5721 5718 5715 5712 5708 5705 5702 5699 5695 5692 5689 5686 5682 5679 5676 5673 5670 5667 5664 5661 5658 5655 5652 5649 5646 5643 5641 5638 5635 5633 5631 5629 5626 5624 5622 5620
5735 5733 5731 5728 5726 5723 5720 5717 5714 5711 5707 5704 5701 5698 5695 5692 5689 5685 5682 5679 5675 5672 5669 5666 5663 5660 5657 5654 5651 5648 5645 5642 5639 5637 5634 5631 5629 5627 5624 5622 5620 5618 5615
5731 5728 5726 5724 5721 5718 5715 5712 5709 5706 5703 5700 5697 5694 5691 5688 5685 5682 5678 5675 5672 5669 5665 5662 5659 5656 5653 5650 5647 5644 5641 5638 5635 5633 5630 5628 5625 5623 5620 5618 5616 5613 5611
5725 5723 5721 5718 5716 5713 5710 5707 5704 5701 5698 5695 5693 5690 5687 5684 5681 5678 5675 5671 5668 5665 5662 5659 5655 5652 5649 5646 5643 5640 5637 5634 5631 5629 5626 5624 5621 5618 5616 5613 5611 5608 5606
5719 5717 5715 5712 5710 5707 5704 5702 5699 5696 5693 5691 5688 5685 5682 5680 5677 5674 5671 5668 5664 5661 5658 5655 5652 5649 5646 5643 5640 5637 5634 5630 5627 5624 5622 5619 5616 5613 5611 5608 5606 5603 5601
5713 5711 5709 5706 5704 5701 5699 5696 5693 5691 5688 5686 5683 5681 5678 5675 5673 5670 5667 5664 5661 5658 5655 5651 5648 5645 5642 5639 5636 5633 5630 5627 5623 5620 5618 5615 5612 5609 5606 5603 5600 5598 5595
5706 5705 5703 5700 5698 5695 5693 5690 5688 5685 5683 5680 5678 5676 5673 5671 5668 5665 5662 5659 5656 5653 5651 5647 5644 5641 5638 5635 5632 5629 5626 5623 5620 5616 5613 5610 5607 5604 5601 5598 5595 5593 5590
5699 5698 5696 5694 5692 5690 5687 5685 5683 5680 5677 5675 5673 5670 5668 5666 5663 5661 5658 5655 5652 5649 5646 5643 5640 5637 5634 5630 5627 5624 5621 5618 5615 5612 5609 5606 5602 5599 5596 5593 5590 5588 5585
5692 5691 5690 5688 5686 5684 5682 5680 5678 5675 5673 5670 5668 5666 5663 5661 5659 5656 5653 5650 5647 5644 5641 5638 5635 5632 5629 5626 5623 5620 5617 5614 5611 5608 5604 5601 5598 5595 5591 5588 5586 5583 5580
5686 5685 5683 5682 5680 5678 5677 5675 5673 5670 5668 5666 5663 5661 5659 5656 5654 5652 5649 5646 5642 5639 5637 5633 5630 5627 5624 5621 5618 5614 5611 5608 5605 5602 5599 5596 5593 5590 5587 5584 5581 5578 5576
5680 5679 5677 5676 5674 5673 5671 5670 5668 5666 5664 5661 5659 5657 5655 5652 5650 5647 5644 5641 5638 5635 5631 5628 5625 5622 5618 5615 5611 5608 5605 5602 5599 5596 5594 5591 5588 5585 5582 5579 5577 5574 5571
5674 5673 5671 5670 5669 5667 5666 5665 5663 5661 5659 5657 5655 5653 5650 5648 5645 5642 5639 5636 5633 5630 5626 5623 5620 5616 5612 5609 5605 5602 5599 5596 5593 5590 5588 5585 5583 5580 5578 5575 5572 5569 5567
5667 5666 5665 5664 5663 5662 5661 5659 5658 5656 5654 5652 5650 5648 5646 5643 5640 5637 5634 5631 5628 5625 5621 5618 5614 5610 5606 5603 5599 5596 5593 5590 5587 5584 5582 5580 5578 5575 5573 5570 5568 5565 5562